User: anonymous   Login
Location: *
(33.8649°S, 62.1526°E)
Time: 00:35:11
(UTC+00:00)
Language:

Cosmos 883 Rocket - Orbit

View from above orbital plane
View from above orbital plane
View from above satellite
View from above satellite

Ground track
Ground track

The orbit data is extracted from the following two-line orbital elements,

1 09613U 76122B   21104.34075826  .00000047  00000-0  32020-4 0  9992
2 09613  82.9572 194.5190 0029383 335.2461  24.7285 13.77476449227418
Epoch (UTC): 14 April 2021 08:10:41
Eccentricity: 0.0029383
inclination: 82.9572°
perigee height: 951 km
apogee height: 994 km
right ascension of ascending node: 194.5190°
argument of perigee: 335.2461°
revolutions per day: 13.77476449
mean anomaly at epoch: 24.7285°
orbit number at epoch: 22741

The dashed part of the orbit path shows where the satellite is in the earth's shadow,  

DLR